Presure
138 154 174 187 136 159 185 143 192 164 181 167 137 165 187 198 209 171 176 183 166 160 161 149 139 143 148 153 156 159 155 157 151 149 160 170 139 192 189 180 200 199 175 220 125
170 121 155 152 126 206 164 159 146 173 170 149 146 140 209 182 195 193 183 172 210 173 171 167 167 142 150 143 147 153 163 155 163 179 178 175 188 178 196 179 146 206 228 225 185
142 169 193 118 200 132 187 164 161 134 173 150 132 153 154 128 138 157 186 162 161 164 216 194 179 179 179 168 161 176 177 170 177 190 171 185 188 193 195 198 207 210 210 184 174
127 156 127 125 157 151 182 194 178 126 149 165 180 166 188 216 172 171 169 180 166 204 194 191 197 107 191 191 195 169 180 178 192 179 193 196 191 200 198 171 172 120 225 116 186
146 118 174 153 145 153 144 130 165 170 140 148 138 159 193 136 156 192 176 187 188 176 214 210 176 183 185 212 207 167 186 183 169 190 197 181 134 181 207 198 223 236 198 220 187
158 173 118 123 132 116 152 141 151 137 126 162 180 191 158 215 178 166 192 150 176 188 190 216 196 207 160 194 216 206 186 182 200 212 207 164 154 211 197 206 239 201 222 239 270
158 125 163 139 173 193 146 193 129 156 132 130 135 177 169 153 232 196 179 168 186 162 208 179 194 160 151 179 161 181 180 183 174 172 140 199 157 96 233 224 186 170 225 238 221
143 188 132 168 142 175 185 199 201 157 144 174 154 184 193 221 221 322 138 203 176 166 198 177 224 161 176 178 174 174 188 157 172 202 207 219 227 230 214 199 192 192 236 230 266
180 180 171 104 130 158 163 178 171 172 180 177 194 200 163 247 207 213 306 213 146 178 207 186 180 182 177 184 206 187 152 173 200 226 200 220 190 207 187 239 223 237 194 264 260
182 166 173 160 110 171 181 198 207 146 160 197 161 177 172 258 314 304 198 306 263 187 203 194 189 195 192 226 212 145 192 173 217 175 174 196 217 204 208 206 218 259 264 251 311
168 174 131 152 123 182 121 179 141 164 221 187 152 189 227 331 317 301 297 307 281 199 264 256 172 192 227 219 146 218 162 166 214 171 162 194 194 196 228 224 233 253 244 279 304
135 187 183 177 173 157 180 181 192 187 199 240 208 212 239 320 311 308 298 283 276 266 264 215 173 210 204 201 184 187 221 224 185 162 205 203 202 200 213 232 247 264 256 299 383
138 175 181 198 158 174 182 211 217 137 244 228 231 231 243 315 307 298 290 276 278 200 173 229 167 173 183 150 201 204 210 186 175 180 208 208 187 195 220 241 258 241 281 304 385
186 169 181 167 189 203 171 231 281 251 247 268 248 213 314 304 293 289 287 268 255 261 243 244 201 145 212 193 153 162 150 184 212 205 207 195 197 223 225 213 252 261 292 291 352
194 169 190 186 201 200 211 224 284 285 272 246 225 247 301 299 293 290 271 271 252 247 256 235 229 193 168 198 145 141 152 191 212 211 203 201 229 218 230 251 238 270 283 359 345
162 171 192 184 185 200 214 222 291 263 247 232 230 311 297 287 283 287 272 269 253 152 246 237 220 149 206 177 148 173 164 186 200 212 190 219 208 170 238 247 249 294 239 369 333
161 159 202 187 194 205 220 267 141 255 252 226 254 304 291 285 217 275 269 267 258 241 237 192 176 214 222 195 158 172 181 191 207 208 219 223 236 240 251 237 269 286 301 373 322
169 188 194 198 199 227 286 282 243 255 240 231 312 300 285 275 207 235 260 254 252 245 159 170 232 203 216 187 200 169 174 209 212 216 208 194 251 240 234 247 284 282 291 366 313
206 197 207 197 287 302 280 272 258 242 231 318 306 296 281 269 242 269 257 262 248 240 233 222 227 232 231 162 217 167 189 208 222 220 212 197 240 241 234 257 283 280 307 346 323
205 214 223 220 294 270 284 275 236 277 318 307 302 289 273 233 274 264 268 255 251 245 235 229 224 225 227 220 218 208 220 189 231 219 207 245 238 247 247 269 278 277 313 348 342
220 308 290 302 312 301 292 296 330 322 310 294 296 285 270 267 265 260 268 261 254 247 225 237 231 228 226 225 224 224 236 228 221 226 242 242 248 233 254 273 274 288 306 343 339
215 303 327 348 252 317 300 346 316 295 305 287 287 278 264 264 266 271 267 256 243 213 240 237 236 231 229 227 233 182 221 202 226 245 240 231 241 232 263 264 273 287 319 349 350
285 275 297 352 340 353 237 334 321 301 296 286 281 276 271 260 263 270 270 263 247 240 234 232 232 235 235 234 235 178 232 234 249 239 229 244 242 235 266 263 271 289 337 353 345
267 284 335 355 348 359 336 279 303 284 292 279 275 274 259 269 260 263 272 263 234 239 239 237 240 200 191 207 232 240 254 243 240 234 238 239 206 256 264 262 268 287 325 344 343
275 254 268 332 330 337 318 319 296 294 285 275 271 272 267 264 259 260 262 264 257 252 247 239 210 243 239 244 166 248 223 248 234 228 233 237 236 257 258 260 267 279 315 348 328
319 254 333 314 325 336 328 317 285 275 282 274 268 266 264 245 249 211 253 254 255 256 255 251 246 244 244 252 146 246 248 234 225 237 235 235 255 259 247 258 264 279 347 350 318
264 298 293 262 326 333 319 305 288 277 267 267 267 255 260 262 255 211 259 252 246 194 239 256 257 257 254 247 247 243 235 226 228 239 227 237 253 254 245 254 257 275 303 363 325
Wind_Speed
40 52 47 44 40 52 49 47 50 54 61 57 49 60 63 64 65 75 77 77 75 64 65 61 57 58 61 66 68 67 65 68 67 64 68 72 56 85 83 79 91 89 65 94 55
48 37 52 47 39 49 58 54 47 54 65 53 52 51 64 62 55 70 68 59 70 76 77 70 68 56 63 57 59 64 69 67 73 79 75 73 80 71 89 82 55 94 100 97 69
48 50 53 38 57 41 57 58 57 48 57 56 43 59 56 42 52 62 71 63 63 66 58 81 79 78 78 69 64 72 71 71 78 85 67 78 81 85 86 87 94 95 90 74 79
39 52 37 39 51 47 58 54 52 46 52 61 60 60 56 73 64 75 77 77 63 62 73 75 76 33 82 80 84 67 73 75 84 72 86 87 79 92 89 63 72 34 100 29 85
40 37 51 60 44 53 46 49 43 51 55 51 47 62 62 51 65 68 67 71 63 57 59 67 68 73 76 78 79 61 75 76 62 84 89 77 39 73 96 88 104 100 87 95 80
57 51 40 39 49 39 50 46 56 59 53 52 54 67 64 74 64 73 62 56 74 82 79 58 67 68 57 70 74 74 73 73 83 85 89 60 53 97 82 88 98 83 96 100 111
50 42 62 63 58 73 56 67 55 62 56 58 65 53 68 68 87 74 77 60 74 50 62 62 66 56 47 66 58 66 66 68 67 63 48 81 60 29 93 94 73 71 95 97 93
55 68 47 59 63 66 71 80 85 71 75 51 71 77 68 85 55 55 50 61 51 57 74 66 55 55 65 65 60 59 68 50 61 78 82 84 83 86 87 76 77 80 99 100 112
71 69 61 40 57 66 53 64 63 70 57 62 74 80 81 89 69 62 53 66 48 72 65 63 64 60 59 59 66 61 51 60 70 73 70 77 67 80 72 92 90 96 68 108 111
73 69 69 68 45 69 81 80 83 71 63 85 79 72 66 81 51 52 64 45 45 60 63 72 70 67 64 58 65 50 63 57 69 61 61 73 78 78 82 78 85 103 105 103 105
76 84 67 62 49 82 56 75 67 83 96 77 80 78 86 44 48 49 47 36 42 65 47 50 55 67 51 60 50 61 51 53 68 55 58 68 67 67 90 86 87 100 98 104 99
74 84 87 85 82 68 75 80 90 82 93 97 82 82 80 46 44 40 40 38 40 43 46 51 53 49 54 58 56 56 67 67 59 54 69 74 73 70 80 87 95 95 98 93 45
69 87 89 91 76 70 85 101 102 74 98 92 76 75 74 40 39 37 36 32 33 44 54 44 43 43 50 42 59 60 65 56 52 57 69 72 64 69 83 87 96 88 93 89 42
90 83 87 82 90 94 71 111 90 94 85 75 68 67 39 38 38 36 32 33 37 38 36 43 46 46 54 52 49 48 50 53 65 63 67 62 63 80 83 77 90 92 87 84 52
91 89 94 93 96 96 98 105 81 69 64 64 65 67 36 34 34 31 33 31 34 35 35 38 45 53 47 55 49 42 52 53 61 62 64 65 76 72 69 90 84 88 80 60 49
75 89 96 97 91 97 106 108 62 62 61 61 63 31 32 34 33 30 33 30 33 38 33 40 44 46 54 49 50 44 48 51 57 62 57 72 62 35 74 79 86 81 52 39 45
71 82 98 91 94 102 114 85 67 64 60 58 55 29 32 32 43 32 33 31 31 33 35 41 43 50 56 53 47 44 42 50 55 61 70 68 74 72 79 75 79 71 82 24 44
85 90 93 97 88 72 74 65 62 59 58 56 30 28 31 31 41 37 34 33 31 35 39 41 49 48 56 50 58 44 40 52 54 60 57 52 74 77 69 75 73 64 72 12 36
92 83 96 91 74 65 67 64 59 58 58 31 28 27 30 32 35 34 35 34 33 36 36 38 42 46 52 47 56 44 43 54 58 57 57 50 70 74 68 71 70 66 81 22 29
91 102 112 102 65 68 58 55 60 49 32 28 27 27 30 34 32 34 34 37 36 38 39 40 44 49 54 56 54 46 57 46 56 54 55 65 65 69 67 68 65 63 81 9 13
97 70 65 58 56 54 52 55 34 30 31 30 24 26 31 31 32 34 33 34 36 38 35 43 46 49 51 54 56 56 58 52 50 57 64 60 61 57 59 61 58 67 69 8 12
90 58 52 48 56 50 48 29 35 42 29 30 26 27 32 31 32 31 34 33 32 30 40 43 46 46 49 51 55 42 45 44 52 56 55 54 58 53 58 56 57 63 45 3 5
58 59 53 42 41 37 52 34 37 40 32 31 26 26 28 30 30 28 31 34 36 35 36 37 39 46 48 48 47 38 50 51 45 49 48 51 51 51 53 49 54 62 46 10 5
58 51 42 37 35 34 34 36 40 41 31 28 28 27 29 29 29 29 26 32 32 36 38 38 40 35 32 37 44 48 43 40 41 43 45 47 35 52 47 46 49 61 50 9 8
51 52 48 36 37 36 36 43 44 40 34 31 31 26 27 27 28 27 26 26 29 33 37 38 34 40 40 40 24 33 34 34 35 39 43 39 43 45 41 43 47 54 64 17 6
38 49 37 36 37 37 39 42 39 36 34 31 30 28 25 31 29 33 28 28 26 27 29 30 32 32 32 26 15 28 29 31 31 37 37 37 39 39 35 42 42 51 38 23 12
48 42 39 42 35 35 38 42 38 38 38 36 30 28 25 25 27 34 24 27 27 26 23 20 21 22 23 24 23 25 28 28 31 33 30 34 33 32 32 38 37 47 57 27 19
Wind_Direction
286 289 279 303 292 283 293 288 285 285 279 287 289 289 280 281 270 277 281 277 281 281 278 277 286 285 283 282 282 283 284 285 285 287 290 296 294 300 301 295 302 303 300 302 253
273 291 287 289 292 310 281 287 284 282 286 291 287 288 300 282 276 272 280 278 278 279 282 283 281 280 280 285 284 284 285 285 287 294 294 294 299 299 302 296 296 304 303 303 283
297 292 305 294 307 285 307 282 281 288 283 290 288 290 287 284 284 285 277 282 281 282 280 276 281 281 281 279 285 286 289 288 291 296 291 297 299 301 301 303 301 305 306 294 292
291 280 296 295 290 301 296 307 288 291 295 281 300 287 274 307 274 276 280 280 279 277 273 276 276 261 279 280 283 288 289 291 294 294 295 296 300 300 301 294 297 270 303 259 295
283 294 302 279 292 296 296 303 275 298 294 285 290 278 309 286 279 285 277 274 273 277 280 271 279 280 282 273 278 290 289 290 296 294 295 293 295 297 300 300 301 301 302 303 302
295 297 284 284 297 295 293 293 276 293 298 271 298 296 285 305 278 271 282 282 278 276 276 272 273 272 283 279 274 277 287 291 290 288 290 296 295 297 305 303 300 302 308 314 314
285 295 282 291 298 298 283 304 291 297 296 297 295 301 271 289 297 273 276 275 269 283 264 279 270 283 283 284 284 285 288 291 293 296 291 296 302 274 299 301 303 307 310 314 308
277 299 287 287 297 299 306 303 301 302 284 294 298 294 306 305 289 280 283 279 280 278 267 281 267 279 279 283 285 286 284 291 294 292 294 295 299 300 301 309 313 308 315 312 314
299 299 294 291 301 303 286 308 294 289 301 292 311 306 280 307 288 284 272 271 282 272 259 272 280 274 277 279 277 281 290 294 291 290 296 297 303 302 308 306 310 316 309 316 314
299 296 302 282 289 301 299 300 302 295 273 304 297 303 285 306 286 276 280 273 271 259 272 268 272 271 276 264 270 290 284 290 288 295 298 300 301 305 307 313 315 318 317 316 324
300 300 293 282 294 303 295 303 298 294 300 305 277 307 303 290 285 278 277 274 265 251 256 248 283 275 256 261 290 270 288 290 286 297 301 301 306 312 308 311 318 321 320 319 324
287 292 294 297 300 300 306 303 300 301 300 300 306 303 305 288 284 279 273 266 260 259 254 256 278 259 262 271 276 282 279 282 293 297 299 301 306 316 313 316 319 321 320 327 323
284 295 294 297 294 300 301 306 306 285 302 299 303 299 303 284 279 275 269 261 258 265 264 253 268 268 268 285 271 275 280 289 293 297 297 300 309 316 313 318 319 323 326 333 333
293 293 292 292 297 301 304 311 302 301 301 301 300 300 286 282 278 275 271 257 261 260 257 245 253 278 257 269 285 283 299 291 290 296 298 306 312 310 317 320 322 326 332 330 335
291 293 295 293 299 297 303 311 300 295 297 298 296 301 282 277 274 268 268 250 259 256 252 243 243 263 268 268 291 303 295 289 290 297 299 305 308 310 314 319 325 329 330 338 338
290 293 295 296 300 301 304 308 297 295 296 293 297 275 270 271 271 265 263 254 252 275 246 239 245 274 260 272 287 279 293 291 294 299 302 303 315 298 321 321 324 339 330 341 341
290 295 296 299 294 297 301 298 282 296 293 295 294 266 265 264 288 261 257 256 244 245 247 255 260 256 257 268 280 279 288 290 296 300 301 308 315 314 320 326 328 342 344 340 346
285 289 295 296 293 285 289 289 286 290 289 293 258 255 259 262 285 276 259 259 245 243 272 271 243 258 258 271 270 279 287 289 294 296 303 310 313 318 326 326 333 346 344 357 346
289 289 293 294 282 277 283 288 286 286 287 264 256 247 254 258 269 253 257 251 248 243 247 249 249 248 251 279 270 281 284 290 296 301 302 314 313 316 326 328 338 349 348 336 348
291 294 293 291 279 281 282 280 281 276 257 255 254 245 252 268 252 256 250 252 250 246 249 249 254 256 257 263 272 281 285 294 298 304 309 308 313 315 325 335 340 348 348 338 341
293 282 280 278 271 272 273 270 259 253 250 255 248 236 245 248 252 255 252 248 249 248 256 252 254 256 261 267 274 279 286 295 301 308 304 307 310 321 331 337 343 349 349 349 304
290 278 270 271 279 269 269 232 241 253 240 247 237 234 242 247 251 252 248 250 253 258 251 254 255 262 265 270 274 280 291 297 303 298 301 312 312 321 337 337 345 353 349 325 193
280 279 272 270 265 254 269 232 219 238 237 240 235 237 237 243 246 254 247 245 252 256 258 259 259 259 266 272 278 289 291 293 294 294 306 306 314 323 339 339 349 358 355 181 123
278 272 267 261 256 238 231 247 232 249 230 233 234 231 236 240 243 252 250 248 251 255 259 263 265 268 273 276 281 282 283 287 288 293 301 309 317 329 341 344 351 0 356 197 123
270 272 267 253 247 238 235 219 231 228 227 232 232 231 233 232 240 246 250 251 252 253 255 261 267 264 271 271 292 281 284 282 287 299 303 313 322 332 342 349 352 2 356 190 159
253 266 247 248 244 235 221 210 231 229 222 224 227 229 232 234 237 249 244 246 250 253 254 258 264 268 269 269 287 272 271 278 295 295 306 316 327 336 339 351 352 4 356 194 164
258 253 252 256 238 230 224 218 220 218 231 224 220 224 228 236 234 248 241 243 247 254 257 256 256 252 251 257 260 264 270 287 293 298 309 318 330 337 343 351 354 5 3 188 184